UWE-3

Last updated on Thu Nov 21 2024 00:03:02 GMT+0000 (Coordinated Universal Time)

1 39446U 13066AG 24324.84353896 .00008270 00000+0 84980-3 0 9991 2 39446 97.8004 271.7034 0059172 67.4496 293.2969 14.89296670591849
UTC large
Height (km)
Speed (km/s)
/
Latitude / Longitude
Inclination (degrees)
Orbital Period (minutes)
Azimuth
Elevation
Range (km)
Doppler Factor

Next 0 passes for location: London (51.5072 / 0.1276)

Sorry there are no passes over London.